TimeCDT,TemperatureF,Dew PointF,Humidity,Sea Level PressureIn,VisibilityMPH,Wind Direction,Wind SpeedMPH,Gust SpeedMPH,PrecipitationIn,Events,Conditions,WindDirDegrees,DateUTC
12:52 AM,30.9,25.0,79,30.38,10.0,WNW,9.2,-,N/A,,Clear,290,2012-10-05 05:52:00
1:52 AM,30.0,25.0,82,30.38,10.0,West,6.9,-,N/A,,Clear,270,2012-10-05 06:52:00
2:52 AM,28.4,24.8,86,30.32,10.0,WNW,5.8,-,N/A,,Clear,290,2012-10-05 07:52:00
3:52 AM,28.9,24.1,82,30.37,10.0,WNW,5.8,-,N/A,,Clear,300,2012-10-05 08:52:00
4:52 AM,28.0,23.0,81,30.39,10.0,NW,5.8,-,N/A,,Clear,310,2012-10-05 09:52:00
5:52 AM,27.0,23.0,85,30.39,10.0,NW,8.1,-,N/A,,Clear,320,2012-10-05 10:52:00
6:52 AM,27.0,21.9,81,30.39,10.0,NW,8.1,-,N/A,,Clear,320,2012-10-05 11:52:00
7:52 AM,27.0,21.0,78,30.41,10.0,WNW,6.9,-,N/A,,Clear,300,2012-10-05 12:52:00
8:52 AM,28.0,21.0,75,30.42,10.0,NW,11.5,-,N/A,,Clear,320,2012-10-05 13:52:00
9:52 AM,28.4,21.2,74,30.36,10.0,NW,9.2,-,N/A,,Mostly Cloudy,320,2012-10-05 14:52:00
10:52 AM,30.0,19.9,66,30.44,10.0,NNW,23.0,32.2,N/A,,Overcast,330,2012-10-05 15:52:00
11:52 AM,32.0,19.4,60,30.37,10.0,North,15.0,26.5,N/A,,Mostly Cloudy,350,2012-10-05 16:52:00
12:47 PM,33.8,19.4,56,30.37,10.0,NW,15.0,21.9,N/A,,Mostly Cloudy,320,2012-10-05 17:47:00
12:52 PM,35.1,19.9,54,30.44,10.0,NNW,12.7,23.0,N/A,,Mostly Cloudy,330,2012-10-05 17:52:00
1:52 PM,37.4,19.4,48,30.36,10.0,NNW,18.4,23.0,N/A,,Partly Cloudy,330,2012-10-05 18:52:00
2:52 PM,37.9,19.9,48,30.41,10.0,North,16.1,25.3,N/A,,Clear,350,2012-10-05 19:52:00
3:52 PM,39.0,19.9,46,30.40,10.0,NW,12.7,21.9,N/A,,Clear,310,2012-10-05 20:52:00
4:52 PM,39.0,19.9,46,30.40,10.0,North,18.4,-,N/A,,Clear,360,2012-10-05 21:52:00
5:52 PM,37.0,19.0,48,30.41,10.0,NNW,12.7,20.7,N/A,,Clear,330,2012-10-05 22:52:00
6:52 PM,36.0,19.9,52,30.42,10.0,NNW,10.4,-,N/A,,Clear,340,2012-10-05 23:52:00
7:52 PM,35.1,21.0,57,30.43,10.0,WNW,5.8,-,N/A,,Mostly Cloudy,300,2012-10-06 00:52:00
8:52 PM,35.1,21.0,57,30.44,10.0,NW,8.1,-,N/A,,Overcast,320,2012-10-06 01:52:00
9:52 PM,32.0,24.1,73,30.46,10.0,North,6.9,-,N/A,,Clear,10,2012-10-06 02:52:00
10:52 PM,32.0,24.1,73,30.47,10.0,North,6.9,-,N/A,,Overcast,350,2012-10-06 03:52:00
11:52 PM,30.9,25.0,79,30.47,9.0,North,8.1,-,N/A,,Mostly Cloudy,350,2012-10-06 04:52:00